Weather History for Hannibal Rgnl AP, Hannibal, M, MO

Change the Weather History Date:

Wednesday, April 30, 2014

  Actual Average Record
Temperature  
Mean Temperature 48 °F -  
Max Temperature 55 °F 71 °F 86 °F (2013)
Min Temperature 41 °F 49 °F 41 °F (2014)
Degree Days  
Heating Degree Days 17    
Moisture  
Dew Point 36 °F    
Average Humidity 66    
Maximum Humidity 87    
Minimum Humidity 47    
Precipitation  
Precipitation 0.01 in - - ()
Sea Level Pressure  
Sea Level Pressure 29.83 in    
Wind  
Wind Speed 12 mph (West)    
Max Wind Speed 21 mph    
Max Gust Speed 28 mph    
Visibility 10 miles    
Events Rain    
Averages and records for this station are not official NWS values.
T = Trace of Precipitation, MM = Missing Value Source: NWS Daily Summary

Daily Weather History Graph

Daily Weather History Graph

Search for Another Location

Airport:

Trip Planner

Search our weather history database for the weather conditions in past years. The results will help you decide how hot, cold, wet, or windy it might be!

Date:

Astronomy

Apr. 30, 2014 Rise Set
Actual Time 6:07 AM CDT 7:59 PM CDT
Civil Twilight 5:38 AM CDT 8:28 PM CDT
Nautical Twilight 5:03 AM CDT 9:03 PM CDT
Astronomical Twilight 4:25 AM CDT 9:41 PM CDT
Moon 7:09 AM CDT 9:38 PM CDT
Length of Visible Light 14h 49m
Length of Day
13h 51m
New Moon, 2% of the Moon is Illuminated
Apr 30
New Moon
May 6
First Quarter
May 14
Full
May 21
Last Quarter
May 28
New

Hourly Weather History & Observations

Time (CDT) Temp. Windchill Dew Point Humidity Pressure Visibility Wind Dir Wind Speed Gust Speed Precip Events Conditions
12:15 AM 46.4 °F 40.1 °F 42.8 °F 87% 29.72 in 7.0 mi WNW 15.0 mph 19.6 mph N/A   Overcast
12:35 AM 46.4 °F 40.1 °F 42.8 °F 87% 29.73 in 10.0 mi WNW 15.0 mph 20.7 mph N/A   Overcast
12:55 AM 44.6 °F 38.8 °F 41.0 °F 87% 29.73 in 10.0 mi WNW 11.5 mph - N/A   Overcast
1:15 AM 44.6 °F 40.2 °F 41.0 °F 87% 29.74 in 10.0 mi West 8.1 mph - N/A   Overcast
1:35 AM 44.6 °F 38.8 °F 39.2 °F 81% 29.75 in 10.0 mi West 11.5 mph - N/A   Overcast
1:55 AM 44.6 °F 40.7 °F 39.2 °F 81% 29.75 in 10.0 mi WNW 6.9 mph - N/A   Overcast
2:15 AM 44.6 °F 39.2 °F 39.2 °F 81% 29.76 in 10.0 mi West 10.4 mph - N/A   Overcast
2:35 AM 44.6 °F 39.2 °F 37.4 °F 76% 29.76 in 10.0 mi West 10.4 mph - N/A   Overcast
2:55 AM 42.8 °F 36.2 °F 37.4 °F 81% 29.76 in 10.0 mi WNW 12.7 mph - N/A   Overcast
3:15 AM 42.8 °F 35.4 °F 35.6 °F 76% 29.77 in 10.0 mi WNW 15.0 mph - N/A   Overcast
3:35 AM 42.8 °F 35.1 °F 35.6 °F 76% 29.77 in 10.0 mi WNW 16.1 mph 21.9 mph N/A   Overcast
3:55 AM 42.8 °F 36.2 °F 35.6 °F 76% 29.78 in 10.0 mi WNW 12.7 mph 18.4 mph N/A   Overcast
4:15 AM 41.0 °F 34.7 °F 33.8 °F 76% 29.79 in 10.0 mi WNW 10.4 mph - N/A   Overcast
4:35 AM 42.8 °F 38.0 °F 33.8 °F 70% 29.80 in 10.0 mi West 8.1 mph - N/A   Overcast
4:55 AM 42.8 °F 36.6 °F 33.8 °F 70% 29.80 in 10.0 mi West 11.5 mph - N/A   Overcast
5:15 AM 42.8 °F 37.5 °F 33.8 °F 70% 29.80 in 10.0 mi West 9.2 mph - N/A   Overcast
5:35 AM 42.8 °F 37.5 °F 33.8 °F 70% 29.80 in 10.0 mi West 9.2 mph - N/A   Overcast
5:55 AM 42.8 °F 38.0 °F 33.8 °F 70% 29.81 in 10.0 mi West 8.1 mph - N/A   Overcast
6:15 AM 42.8 °F 37.5 °F 33.8 °F 70% 29.81 in 10.0 mi West 9.2 mph - N/A   Overcast
6:35 AM 42.8 °F 36.6 °F 33.8 °F 70% 29.82 in 10.0 mi West 11.5 mph 16.1 mph N/A   Overcast
6:55 AM 42.8 °F 37.5 °F 33.8 °F 70% 29.82 in 10.0 mi West 9.2 mph - N/A   Overcast
7:15 AM 42.8 °F 37.5 °F 33.8 °F 70% 29.82 in 10.0 mi West 9.2 mph - N/A   Overcast
7:35 AM 42.8 °F 37.5 °F 33.8 °F 70% 29.82 in 10.0 mi West 9.2 mph - N/A   Overcast
7:55 AM 42.8 °F 37.0 °F 33.8 °F 70% 29.83 in 10.0 mi West 10.4 mph 16.1 mph N/A   Overcast
8:15 AM 42.8 °F 37.0 °F 32.0 °F 66% 29.83 in 10.0 mi West 10.4 mph 16.1 mph N/A   Overcast
8:35 AM 44.6 °F 38.8 °F 32.0 °F 61% 29.83 in 10.0 mi West 11.5 mph 19.6 mph N/A   Overcast
8:55 AM 44.6 °F 38.4 °F 32.0 °F 61% 29.83 in 10.0 mi WNW 12.7 mph 17.3 mph N/A   Mostly Cloudy
9:15 AM 46.4 °F 40.4 °F 32.0 °F 57% 29.83 in 10.0 mi WNW 13.8 mph 20.7 mph N/A   Mostly Cloudy
9:35 AM 46.4 °F 40.4 °F 33.8 °F 62% 29.83 in 10.0 mi West 13.8 mph 20.7 mph N/A   Mostly Cloudy
9:55 AM 46.4 °F 40.7 °F 33.8 °F 62% 29.83 in 10.0 mi West 12.7 mph 20.7 mph N/A   Overcast
10:15 AM 46.4 °F 39.5 °F 33.8 °F 62% 29.83 in 10.0 mi West 17.3 mph - N/A   Overcast
10:35 AM 48.2 °F - 33.8 °F 58% 29.84 in 10.0 mi West 12.7 mph - N/A   Overcast
10:55 AM 50.0 °F - 35.6 °F 58% 29.84 in 10.0 mi West 16.1 mph 19.6 mph N/A   Overcast
11:15 AM 46.4 °F 40.7 °F 33.8 °F 62% 29.85 in 10.0 mi West 12.7 mph 18.4 mph N/A   Overcast
11:35 AM 50.0 °F - 33.8 °F 54% 29.85 in 10.0 mi West 9.2 mph 19.6 mph N/A   Overcast
11:55 AM 50.0 °F - 33.8 °F 54% 29.85 in 10.0 mi West 13.8 mph 20.7 mph N/A   Overcast
12:15 PM 51.8 °F - 33.8 °F 50% 29.85 in 10.0 mi West 15.0 mph 21.9 mph N/A   Overcast
12:35 PM 50.0 °F - 32.0 °F 50% 29.85 in 10.0 mi West 20.7 mph 24.2 mph N/A   Overcast
12:55 PM 50.0 °F - 35.6 °F 58% 29.85 in 10.0 mi WSW 15.0 mph - N/A   Overcast
1:15 PM 51.8 °F - 35.6 °F 54% 29.85 in 10.0 mi WSW 13.8 mph 17.3 mph N/A   Overcast
1:35 PM 53.6 °F - 35.6 °F 51% 29.85 in 10.0 mi WSW 13.8 mph 20.7 mph N/A   Overcast
1:55 PM 51.8 °F - 35.6 °F 54% 29.85 in 10.0 mi WSW 11.5 mph 20.7 mph N/A   Overcast
2:15 PM 53.6 °F - 35.6 °F 51% 29.86 in 10.0 mi WSW 13.8 mph 18.4 mph N/A   Overcast
2:35 PM 53.6 °F - 35.6 °F 51% 29.86 in 10.0 mi WSW 17.3 mph 23.0 mph N/A   Overcast
2:55 PM 53.6 °F - 33.8 °F 47% 29.85 in 10.0 mi SW 13.8 mph 19.6 mph N/A   Overcast
3:15 PM 51.8 °F - 35.6 °F 54% 29.85 in 10.0 mi SW 19.6 mph 27.6 mph N/A   Overcast
3:35 PM 50.0 °F - 37.4 °F 62% 29.85 in 10.0 mi SW 13.8 mph 18.4 mph N/A   Overcast
3:55 PM 51.8 °F - 39.2 °F 62% 29.85 in 10.0 mi WSW 13.8 mph 21.9 mph N/A   Overcast
4:15 PM 53.6 °F - 37.4 °F 54% 29.84 in 10.0 mi West 16.1 mph 23.0 mph N/A   Overcast
4:35 PM 53.6 °F - 35.6 °F 51% 29.84 in 10.0 mi West 17.3 mph 25.3 mph N/A   Mostly Cloudy
4:55 PM 55.4 °F - 35.6 °F 47% 29.84 in 10.0 mi West 17.3 mph 26.5 mph N/A   Mostly Cloudy
5:15 PM 53.6 °F - 35.6 °F 51% 29.84 in 10.0 mi WSW 12.7 mph - N/A   Mostly Cloudy
5:35 PM 50.0 °F - 35.6 °F 58% 29.85 in 7.0 mi WSW 17.3 mph 21.9 mph N/A   Overcast
5:55 PM 46.4 °F 39.5 °F 39.2 °F 76% 29.86 in 5.0 mi West 17.3 mph 25.3 mph 0.01 in Rain Rain
6:15 PM 48.2 °F - 39.2 °F 71% 29.86 in 10.0 mi West 9.2 mph - N/A   Overcast
6:35 PM 50.0 °F - 39.2 °F 66% 29.86 in 10.0 mi West 10.4 mph - N/A   Overcast
6:55 PM 50.0 °F - 39.2 °F 66% 29.86 in 10.0 mi WSW 9.2 mph - N/A   Overcast
7:15 PM 50.0 °F - 35.6 °F 58% 29.86 in 10.0 mi WSW 11.5 mph 18.4 mph N/A   Scattered Clouds
7:35 PM 48.2 °F - 35.6 °F 62% 29.87 in 10.0 mi West 13.8 mph - N/A   Mostly Cloudy
7:55 PM 46.4 °F 41.9 °F 35.6 °F 66% 29.88 in 10.0 mi West 9.2 mph - N/A   Overcast
8:15 PM 46.4 °F 41.5 °F 35.6 °F 66% 29.88 in 10.0 mi West 10.4 mph - N/A   Overcast
8:35 PM 46.4 °F 41.5 °F 35.6 °F 66% 29.88 in 10.0 mi WNW 10.4 mph - N/A   Overcast
9:15 PM 42.8 °F 41.1 °F 35.6 °F 76% 29.89 in 10.0 mi SW 3.5 mph - N/A   Clear
9:35 PM 44.6 °F 40.7 °F 35.6 °F 71% 29.89 in 10.0 mi WSW 6.9 mph - N/A   Scattered Clouds
9:55 PM 44.6 °F 41.4 °F 37.4 °F 76% 29.89 in 10.0 mi SW 5.8 mph - N/A   Overcast
10:15 PM 46.4 °F 41.5 °F 35.6 °F 66% 29.89 in 10.0 mi WSW 10.4 mph - N/A   Overcast
10:35 PM 46.4 °F 41.5 °F 35.6 °F 66% 29.89 in 10.0 mi WSW 10.4 mph - N/A   Overcast
10:55 PM 44.6 °F 38.8 °F 35.6 °F 71% 29.89 in 10.0 mi WSW 11.5 mph - N/A   Scattered Clouds
11:15 PM 44.6 °F 39.2 °F 35.6 °F 71% 29.88 in 10.0 mi WSW 10.4 mph - N/A   Scattered Clouds
11:35 PM 44.6 °F 39.7 °F 35.6 °F 71% 29.88 in 10.0 mi WSW 9.2 mph - N/A   Scattered Clouds